Location: Cargill Incorporated Elevator
(42.7294°N, 93.7333°W)
Time: 23:32:46
(UTC+00:00)

Cosmos 1697 Rocket - Visible Passes

Search period start: 18 April 2026 00:00
Search period end: 28 April 2026 00:00
Orbit: 831 x 843 km, 71.0° (Epoch: 18 April)

Date Brightness Start Highest point End Pass type
(mag) Time Alt. Az. Time Alt. Az. Time Alt. Az.
18 Apr 4.2 06:10:10 10° N 06:13:52 32° NNE 06:13:52 32° NNE visible
18 Apr 4.8 07:54:18 10° NW 07:55:33 16° NW 07:55:33 16° NW visible
19 Apr 4.2 05:53:40 10° N 05:57:28 31° NNE 05:57:28 31° NNE visible
19 Apr 4.7 07:37:40 10° NW 07:39:10 17° NW 07:39:10 17° NW visible
20 Apr 4.2 05:37:10 10° N 05:41:07 31° NNE 05:41:07 31° NNE visible
20 Apr 4.6 07:21:04 10° NW 07:22:48 19° NW 07:22:48 19° NW visible
21 Apr 4.2 05:20:41 10° N 05:24:47 30° NE 05:24:47 30° NE visible
21 Apr 4.6 07:04:27 10° NW 07:06:28 21° NW 07:06:28 21° NW visible
22 Apr 4.2 05:04:11 10° N 05:08:28 29° NE 05:08:28 29° NE visible
22 Apr 4.4 06:47:51 10° NW 06:50:10 24° NW 06:50:10 24° NW visible
23 Apr 4.2 04:47:43 10° N 04:52:11 27° NE 04:52:11 27° NE visible
23 Apr 4.3 06:31:15 10° NW 06:33:53 27° NW 06:33:53 27° NW visible
24 Apr 4.2 04:31:14 10° N 04:35:53 26° NE 04:35:56 26° NE visible
24 Apr 4.1 06:14:40 10° NNW 06:17:37 30° NW 06:17:37 30° NW visible
25 Apr 4.2 04:14:46 10° N 04:19:17 24° NE 04:19:41 24° ENE visible
25 Apr 3.9 05:58:05 10° NNW 06:01:23 35° NW 06:01:23 35° NW visible
26 Apr 4.2 03:58:18 10° N 04:02:40 22° NE 04:03:29 22° ENE visible
26 Apr 3.7 05:41:30 10° NNW 05:45:11 40° NW 05:45:11 40° NW visible
27 Apr 4.3 03:41:51 10° N 03:46:04 21° NE 03:47:17 20° ENE visible
27 Apr 3.5 05:24:56 10° NNW 05:28:59 47° NW 05:28:59 47° NW visible
